Date,TemperatureHighF,TemperatureAvgF,TemperatureLowF,DewpointHighF,DewpointAvgF,DewpointLowF,HumidityHigh,HumidityAvg,HumidityLow,PressureMaxIn,PressureMinIn,WindSpeedMaxMPH,WindSpeedAvgMPH,GustSpeedMaxMPH,PrecipitationSumIn
2013-1-1,37.4,33.6,25.5,36.0,30.8,20.8,95,90,81,30.11,29.92,15,3,15,0.01
2013-1-2,34.4,25.7,19.0,20.7,17.3,13.9,89,71,49,30.19,30.09,13,1,13,0.00
2013-1-3,41.6,28.0,17.9,28.7,21.8,14.9,90,78,57,30.31,30.14,12,1,12,0.00
2013-1-4,44.1,31.4,21.2,29.7,24.7,18.9,98,78,53,30.35,30.27,16,1,16,0.00
2013-1-5,43.4,35.1,23.1,32.5,28.3,20.6,92,77,62,30.28,30.10,12,1,12,0.01
2013-1-6,43.3,35.0,24.9,35.1,29.4,21.5,91,80,65,30.29,30.05,17,3,17,0.00
2013-1-7,45.3,30.3,19.1,29.9,23.5,16.6,99,77,53,30.37,30.12,11,0,11,0.00
2013-1-8,56.4,41.2,25.0,38.0,32.1,21.7,91,72,48,30.19,30.07,12,1,12,0.00
2013-1-9,54.7,49.2,44.4,48.6,43.6,36.5,94,81,63,30.30,30.10,12,1,13,0.04
2013-1-10,65.9,56.1,46.3,61.7,53.4,39.6,98,91,67,30.30,29.74,19,4,19,0.41
2013-1-11,65.7,59.1,54.0,61.8,53.0,48.4,93,81,63,29.89,29.74,24,3,25,0.83
2013-1-12,70.5,66.0,59.0,66.3,62.9,56.1,95,90,82,29.85,29.57,31,3,31,0.01
2013-1-13,70.3,37.5,26.2,64.8,34.8,21.6,100,90,80,30.19,29.58,26,4,26,2.26
2013-1-14,28.5,25.6,22.1,23.1,20.4,17.5,92,80,72,30.34,30.19,18,4,18,0.00
2013-1-15,30.9,27.4,23.3,28.0,23.5,20.2,92,85,74,30.22,29.97,19,4,19,0.00
2013-1-16,32.0,30.4,29.0,29.5,27.3,26.3,92,88,82,30.05,29.94,12,0,12,0.00
2013-1-17,46.2,34.8,27.8,35.4,29.1,24.5,92,80,64,30.37,30.00,24,2,24,0.09
2013-1-18,48.4,36.0,22.0,31.0,26.2,19.5,92,69,48,30.46,30.19,14,1,14,0.00
2013-1-19,56.9,46.9,36.7,36.7,32.3,26.8,70,57,46,30.19,29.95,22,4,22,0.00
2013-1-20,45.4,39.4,29.0,34.5,26.9,19.2,84,62,37,30.18,30.00,14,2,15,0.00
2013-1-21,34.7,28.0,23.2,20.0,15.2,7.4,77,59,45,30.24,30.10,17,3,17,0.00
2013-1-22,26.3,22.1,17.5,9.6,4.6,-1.1,62,47,38,30.37,30.24,10,2,12,0.00
2013-1-23,47.6,32.1,17.2,32.1,21.6,9.0,89,66,50,30.27,30.03,14,1,14,0.00
2013-1-24,33.3,28.9,22.1,29.0,15.3,10.1,84,57,43,30.44,30.13,23,6,23,0.00
2013-1-25,36.9,30.7,27.2,30.1,24.7,10.1,91,79,43,30.14,30.00,10,1,12,0.02
2013-1-26,45.4,33.9,24.7,30.5,25.4,22.3,92,73,49,30.25,30.14,10,1,10,0.00
2013-1-27,50.7,39.6,29.8,44.9,35.6,23.3,94,86,75,30.21,29.99,19,1,19,0.14
2013-1-28,61.8,56.7,50.2,57.8,51.7,42.7,92,84,66,30.02,29.92,20,4,20,0.09
2013-1-29,71.7,64.6,55.5,63.7,59.3,52.0,91,83,73,29.92,29.31,38,6,38,0.46
2013-1-30,58.0,47.0,32.8,52.1,41.2,21.0,96,81,61,29.83,29.32,30,7,38,0.99
2013-1-31,42.6,33.4,21.9,31.8,23.8,11.1,92,68,54,30.22,29.83,24,6,24,0.02
2013-2-1,26.9,20.9,12.8,17.4,10.3,3.0,72,63,53,30.43,30.22,23,2,23,0.00
2013-2-2,40.7,34.1,24.4,32.0,24.9,16.5,78,69,56,30.22,29.97,22,3,22,0.00
2013-2-3,43.4,36.6,28.6,31.8,27.1,21.8,84,69,50,30.06,29.88,21,3,21,0.00
2013-2-4,50.6,40.3,28.5,40.8,32.9,22.6,87,75,48,30.00,29.77,18,3,18,0.04
2013-2-5,55.9,43.9,36.1,42.9,38.4,34.0,93,82,54,29.97,29.79,14,1,14,0.00
2013-2-6,52.1,42.2,30.2,37.5,32.8,27.5,93,71,48,30.14,29.97,11,1,11,0.01
2013-2-7,66.0,53.1,38.3,53.2,43.1,31.5,93,70,54,29.97,29.74,16,1,16,0.49
2013-2-8,51.5,40.0,33.6,49.5,34.1,27.6,93,79,68,30.25,29.78,23,5,23,0.02
2013-2-9,51.0,40.2,31.6,34.3,30.2,26.3,82,68,49,30.27,29.96,13,3,13,0.00
2013-2-10,57.4,52.7,46.1,54.5,45.1,32.9,95,76,56,29.96,29.60,30,5,30,0.30
2013-2-11,56.3,46.1,34.4,53.7,34.3,29.1,91,64,49,30.05,29.74,19,4,19,0.00
2013-2-12,48.9,40.8,27.6,35.7,31.3,25.2,95,71,52,30.05,29.72,12,1,12,0.01
2013-2-13,45.0,39.8,36.7,36.9,35.2,33.6,91,84,69,29.85,29.68,18,3,18,0.12
2013-2-14,59.7,46.6,36.5,40.9,37.8,33.8,91,73,47,29.90,29.81,19,3,19,0.01
2013-2-15,46.7,39.5,29.4,37.5,28.1,17.9,87,65,42,30.11,29.90,20,2,20,0.00
2013-2-16,36.6,29.0,23.4,20.4,16.1,10.2,81,60,36,30.11,30.06,20,2,20,0.00
2013-2-17,46.9,34.9,19.7,26.2,21.0,12.1,86,58,41,30.15,29.96,13,1,13,0.00
2013-2-18,61.0,49.1,40.0,47.3,38.3,24.3,92,68,41,29.96,29.60,32,7,32,0.66
2013-2-19,45.2,37.9,29.7,43.0,24.3,14.7,92,59,38,30.17,29.73,29,7,29,0.00
2013-2-20,32.9,27.7,23.5,19.0,16.1,12.6,72,61,52,30.27,30.16,14,2,14,0.00
2013-2-21,38.9,31.9,25.6,37.3,24.9,17.8,94,76,51,30.17,29.71,25,5,25,0.84
2013-2-22,43.6,40.2,33.6,40.7,36.1,27.1,95,85,77,29.95,29.70,16,3,16,0.02
2013-2-23,46.0,35.3,28.3,29.8,26.6,23.6,87,72,50,29.95,29.84,13,1,13,0.00
2013-2-24,50.9,37.7,24.1,30.0,26.6,21.6,91,67,42,30.04,29.88,12,2,13,0.00
2013-2-25,57.9,47.6,35.0,43.9,31.3,26.3,85,55,36,29.91,29.34,24,6,24,0.15
2013-2-26,49.8,44.9,38.7,48.3,41.2,34.0,95,87,75,29.57,29.21,22,6,22,0.56
2013-2-27,39.1,37.4,34.4,34.1,31.9,28.8,87,80,67,29.79,29.56,21,6,21,0.02
2013-2-28,38.3,35.1,33.0,31.8,29.4,25.4,90,80,71,29.97,29.78,16,4,16,0.01
2013-3-1,37.9,33.9,31.5,34.6,31.5,29.5,93,91,83,30.00,29.93,17,2,17,0.09
2013-3-2,32.2,30.6,28.7,29.5,25.7,20.2,92,82,67,30.10,29.97,19,3,19,0.03
2013-3-3,41.7,33.1,22.0,27.2,20.9,17.5,84,62,43,30.09,29.98,16,1,16,0.00
2013-3-4,59.0,46.6,35.7,41.5,30.4,22.3,80,54,40,29.99,29.66,19,2,19,0.04
2013-3-5,49.6,41.2,33.3,48.0,36.3,21.8,95,83,60,29.95,29.63,28,6,30,0.33
2013-3-6,42.0,35.9,32.6,29.2,26.2,23.7,77,68,58,30.22,29.95,25,6,25,0.00
2013-3-7,44.0,35.0,27.3,30.8,27.0,23.3,86,73,58,30.30,30.20,12,1,12,0.00
2013-3-8,54.6,41.4,26.9,32.8,29.0,24.0,92,64,40,30.32,30.13,16,2,16,0.00
2013-3-9,66.7,53.3,41.3,39.3,34.8,30.1,66,51,35,30.13,29.82,16,2,16,0.00
2013-3-10,67.1,58.5,50.6,54.3,46.0,38.5,95,65,45,29.82,29.59,29,6,29,0.59
2013-3-11,53.3,42.7,37.3,51.6,37.1,30.3,94,80,71,29.90,29.62,24,5,24,0.00
2013-3-12,51.2,40.6,28.1,32.9,28.7,22.5,91,65,39,30.06,29.89,18,3,18,0.00
2013-3-13,44.6,36.9,28.3,29.2,22.6,18.4,74,56,43,30.31,30.05,23,4,23,0.00
2013-3-14,45.4,34.7,22.4,35.6,25.9,19.2,88,71,47,30.31,30.03,13,1,13,0.05
2013-3-15,76.5,56.8,34.3,52.8,42.8,27.5,79,61,42,30.03,29.65,18,3,19,0.00
2013-3-16,71.5,61.0,45.4,54.2,48.1,39.3,80,63,53,29.85,29.62,23,7,23,0.00
2013-3-17,45.4,42.7,39.9,42.6,39.9,37.2,94,90,79,29.93,29.59,18,5,18,0.56
2013-3-18,45.2,42.7,39.7,43.6,41.1,37.8,94,94,93,29.61,29.56,19,5,19,0.25
2013-3-21,42.2,36.0,25.0,22.0,18.3,13.7,73,49,40,30.01,29.86,13,2,13,0.00
2013-3-22,42.5,38.3,33.6,27.9,24.4,21.0,62,57,51,29.92,29.85,11,3,11,0.00
2013-3-23,55.4,47.0,40.2,44.0,34.6,27.4,91,63,52,29.88,29.55,16,4,16,0.12
2013-3-24,46.7,41.1,33.9,45.0,38.0,28.8,95,89,78,29.65,29.33,30,7,30,0.25
2013-3-25,37.1,34.0,31.9,30.6,27.7,25.0,92,78,67,30.06,29.64,28,8,28,0.00
2013-3-26,42.0,35.2,29.2,29.8,28.1,24.8,92,76,57,30.25,30.05,13,3,16,0.01
2013-3-27,50.6,37.9,23.6,32.8,27.0,21.1,91,67,43,30.30,30.19,13,1,13,0.00
2013-3-28,61.8,48.6,38.4,39.6,34.4,30.5,83,60,40,30.26,30.14,7,1,9,0.00
2013-3-29,58.0,49.9,44.9,48.9,44.4,37.8,92,82,65,30.16,30.05,19,1,20,0.53
2013-3-30,54.7,48.6,40.9,48.7,45.5,39.1,98,89,74,30.08,29.79,13,1,13,0.45
2013-3-31,62.4,54.1,49.6,52.2,49.0,45.1,96,84,60,29.83,29.74,11,1,11,0.01
2013-4-1,57.1,48.8,41.3,46.6,35.9,26.9,94,63,43,30.08,29.78,17,3,19,0.00
2013-4-2,46.9,42.1,37.3,29.0,25.0,21.0,67,51,37,30.19,30.07,13,2,13,0.00
2013-4-3,53.2,44.8,33.4,28.0,24.8,21.5,67,47,33,30.22,30.07,19,4,21,0.00
2013-4-4,47.4,44.5,39.3,43.7,34.8,24.3,90,71,42,30.08,29.89,15,2,15,0.12
2013-4-5,70.3,53.0,33.5,42.7,38.4,31.7,95,63,33,30.02,29.92,12,1,14,0.00
2013-4-6,74.9,60.2,42.8,46.4,42.2,37.4,83,55,34,29.98,29.76,19,3,24,0.00
2013-4-7,74.2,65.2,59.8,58.8,51.9,44.5,72,62,52,29.87,29.79,17,3,17,0.00
2013-4-8,76.0,68.4,61.0,59.4,55.6,50.8,74,64,53,29.82,29.74,21,3,21,0.00
2013-4-9,78.7,70.8,62.1,65.5,61.5,54.3,81,73,62,29.90,29.75,17,3,22,0.00
2013-4-10,84.0,76.0,69.9,67.8,64.6,61.7,82,68,55,29.82,29.57,21,4,24,0.02
2013-4-11,70.7,58.0,47.8,64.6,55.7,41.8,95,92,78,29.62,29.49,21,3,21,1.92
2013-4-12,59.4,49.0,37.8,42.9,38.2,34.0,89,68,50,29.92,29.62,25,4,25,0.00
2013-4-13,67.6,52.2,34.4,44.3,38.5,31.5,90,62,39,29.99,29.83,12,1,12,0.00
2013-4-14,75.7,62.6,50.9,53.3,47.3,41.8,73,59,41,29.84,29.65,27,3,27,0.00
2013-4-15,81.3,69.1,57.0,63.1,57.7,51.2,86,68,51,29.81,29.70,15,2,18,0.00
2013-4-16,81.8,73.2,65.9,71.1,66.4,59.7,92,80,67,29.93,29.78,18,3,18,0.00
2013-4-17,86.8,76.6,66.3,70.9,67.6,63.9,93,75,55,29.95,29.72,21,2,21,0.00
2013-4-18,82.7,73.0,46.7,67.6,64.0,44.6,93,74,57,29.72,29.47,27,5,27,1.40
2013-4-19,49.2,43.6,37.8,44.6,34.7,31.5,93,71,55,29.99,29.58,20,4,20,0.12
2013-4-20,62.0,48.6,32.3,39.3,34.9,30.2,94,63,36,30.20,29.99,17,1,17,0.00
2013-4-21,65.8,52.9,39.1,41.0,35.7,31.9,78,54,32,30.29,30.12,14,2,14,0.00
2013-4-22,76.3,60.9,44.6,51.2,44.2,35.8,75,55,38,30.14,29.92,15,1,15,0.00
2013-4-23,74.7,65.1,55.6,60.5,54.8,46.8,80,70,60,29.96,29.74,22,3,22,0.00
2013-4-24,66.6,46.2,35.8,58.7,40.8,33.6,93,82,61,30.18,29.73,19,3,19,0.41
2013-4-25,67.7,49.7,31.5,45.2,38.7,29.7,95,70,38,30.26,30.17,12,1,12,0.01
2013-4-26,52.9,49.5,44.6,49.8,45.4,40.2,94,86,70,30.33,30.15,10,0,10,0.58
2013-4-27,60.7,55.0,49.7,58.4,53.4,48.0,98,95,89,30.18,29.77,14,1,14,1.11
2013-4-28,60.4,57.5,51.8,57.9,54.2,49.8,96,89,79,29.84,29.75,12,1,12,0.00
2013-4-29,78.5,62.4,49.2,60.5,54.6,47.5,96,78,52,29.89,29.75,10,0,10,0.01
2013-4-30,85.7,69.2,51.9,61.7,55.8,49.8,94,66,37,29.86,29.77,14,0,14,0.00
2013-5-1,83.8,69.4,54.5,66.2,59.5,52.0,92,72,49,29.96,29.85,13,1,13,0.01
2013-5-2,76.2,67.4,57.1,62.9,59.4,54.7,94,77,57,30.02,29.89,13,0,13,0.03
2013-5-3,73.8,61.4,42.9,62.0,55.2,40.9,95,81,61,29.90,29.62,23,2,23,0.70
2013-5-4,56.4,46.3,41.3,43.3,41.1,39.5,94,83,58,29.86,29.73,11,0,11,0.74
2013-5-5,61.5,51.7,42.0,52.2,47.3,40.0,94,86,68,29.83,29.70,12,1,12,0.00
2013-5-6,65.4,56.8,52.7,58.2,54.0,50.5,94,90,73,29.80,29.68,13,1,13,0.04
2013-5-7,74.0,61.7,51.3,61.2,56.1,49.9,97,83,56,29.88,29.79,11,1,11,0.01
2013-5-8,84.7,68.8,55.4,61.1,57.7,53.7,95,71,41,29.92,29.83,12,1,12,0.00
2013-5-9,82.5,71.6,58.5,65.8,61.4,56.2,93,72,53,29.92,29.79,19,1,19,0.00
2013-5-10,79.3,68.4,63.3,65.8,62.6,58.8,95,83,59,29.83,29.70,13,1,13,0.35
2013-5-11,74.0,61.6,55.1,59.6,52.4,38.7,92,73,50,30.00,29.82,16,2,16,0.00
2013-5-12,65.6,53.5,41.2,41.3,37.5,29.0,89,58,33,30.09,30.00,16,2,16,0.00
2013-5-13,74.5,56.9,37.7,47.8,40.8,35.6,94,61,30,30.14,30.01,12,0,12,0.00
2013-5-14,87.8,71.7,53.1,63.4,56.0,43.4,76,59,40,30.01,29.80,15,1,15,0.00
2013-5-15,86.4,75.3,65.6,64.0,58.9,55.3,71,58,40,29.92,29.80,13,1,14,0.00
2013-5-16,82.0,72.4,64.6,68.5,61.7,56.8,86,70,56,29.87,29.77,7,0,7,0.00
2013-5-17,71.8,66.7,63.6,67.4,63.8,60.2,95,91,82,29.87,29.79,11,1,11,0.31
2013-5-18,85.2,73.2,66.6,69.7,66.9,65.2,97,82,57,29.88,29.79,9,0,9,0.00
2013-5-19,91.7,79.4,69.1,76.1,71.2,66.3,96,78,53,29.81,29.72,13,1,13,0.00
2013-5-20,90.5,79.2,71.0,73.6,70.6,68.0,91,76,55,29.83,29.68,17,2,17,0.00
2013-5-21,81.2,70.3,65.2,70.3,66.1,63.2,95,87,68,29.81,29.66,23,2,23,1.34
2013-5-22,80.2,70.3,63.0,66.5,63.2,60.7,96,80,55,29.72,29.61,22,1,22,0.19
2013-5-23,74.1,66.9,56.6,61.9,57.8,49.1,93,73,57,30.03,29.72,20,3,20,0.00
2013-5-24,71.8,59.4,48.2,51.1,48.0,45.0,90,68,42,30.23,30.03,12,1,14,0.00
2013-5-25,79.7,62.6,46.2,56.4,51.5,44.6,95,71,38,30.22,30.03,10,0,10,0.00
2013-5-26,87.2,71.7,58.1,65.1,59.3,54.5,92,68,41,30.08,29.95,10,0,10,0.00
2013-5-27,86.4,74.6,60.3,68.6,61.9,55.3,86,66,46,29.96,29.80,18,1,18,0.00
2013-5-28,88.8,78.7,70.8,70.7,65.6,58.6,81,65,50,29.90,29.80,19,2,19,0.00
2013-5-29,88.5,76.9,61.3,70.5,64.5,56.8,87,67,48,29.95,29.81,18,1,18,0.00
2013-5-30,87.7,77.8,67.7,72.7,69.0,64.7,95,75,58,29.91,29.79,27,2,27,0.24
2013-5-31,82.2,74.4,68.1,75.0,70.4,66.2,95,87,77,29.87,29.73,20,2,20,0.27
2013-6-1,77.6,68.6,63.6,72.2,65.9,62.0,97,92,72,29.87,29.65,22,1,22,3.01
2013-6-2,78.5,70.2,61.8,65.3,63.1,59.0,96,80,58,29.85,29.76,17,1,17,0.01
2013-6-3,76.9,66.5,58.8,61.3,58.7,56.2,94,78,55,29.93,29.83,11,1,11,0.00
2013-6-4,81.8,68.5,53.5,64.5,59.5,51.8,95,75,52,29.94,29.84,9,0,9,0.00
2013-6-5,88.7,75.8,63.5,70.3,66.2,61.8,94,74,48,29.85,29.67,7,0,7,0.00
2013-6-6,83.0,72.8,65.0,70.0,66.4,63.5,97,82,58,29.68,29.62,18,1,18,2.43
2013-6-7,80.5,71.6,64.0,66.4,63.4,61.2,91,76,58,29.75,29.64,14,2,15,0.00
2013-6-8,86.0,71.5,59.3,64.7,61.3,57.8,96,73,44,29.87,29.74,7,0,7,0.00
2013-6-9,77.1,68.1,62.3,72.9,65.5,59.6,96,92,82,29.87,29.69,7,0,11,1.17
2013-6-10,84.3,72.6,65.0,72.2,66.7,63.8,96,83,57,29.79,29.69,15,1,15,0.16
2013-6-11,97.8,80.4,61.0,78.8,70.3,59.6,96,74,51,29.87,29.77,11,0,11,0.00
2013-6-12,96.0,86.0,75.7,78.7,74.7,70.9,86,70,54,29.89,29.69,16,1,16,0.00
2013-6-13,83.3,78.1,65.9,74.6,68.8,62.8,90,74,58,29.84,29.67,21,2,22,0.00
2013-6-14,84.2,71.9,58.3,64.8,60.9,56.3,94,70,48,29.94,29.82,14,1,14,0.00
2013-6-15,91.8,76.9,61.4,69.6,64.8,59.7,95,69,43,29.98,29.83,9,0,9,0.00
2013-6-16,90.5,79.2,68.4,74.2,70.0,65.5,93,75,55,29.91,29.80,11,0,11,0.00
2013-6-17,91.1,75.1,66.9,77.3,70.6,65.4,95,87,59,29.82,29.74,14,1,14,0.68
2013-6-18,88.0,75.0,65.8,73.1,67.2,63.5,96,78,56,29.85,29.71,13,1,13,0.04
2013-6-19,89.2,76.5,65.0,72.5,67.7,63.2,94,76,53,29.92,29.81,12,0,12,0.05
2013-6-20,93.7,79.4,66.6,74.3,70.0,65.1,96,75,49,30.00,29.91,10,0,10,0.00
2013-6-21,93.6,81.9,70.2,75.4,71.7,67.8,92,73,52,30.03,29.94,12,0,12,0.00
2013-6-22,91.5,81.2,69.8,74.5,70.8,66.8,93,72,51,30.02,29.91,12,1,12,0.00
2013-6-23,93.3,80.2,69.0,74.3,69.2,66.0,92,71,47,29.98,29.87,11,1,11,0.00
2013-6-24,91.4,79.0,72.6,76.5,72.6,69.3,93,81,60,29.99,29.89,10,1,10,0.05
2013-6-25,93.5,83.9,75.2,77.8,74.6,71.8,92,75,56,29.91,29.76,12,1,12,0.00
2013-6-26,93.1,82.9,74.2,78.0,73.3,69.4,94,73,59,29.81,29.61,27,1,27,0.80
2013-6-27,94.6,82.8,70.5,78.8,73.2,68.7,96,75,47,29.73,29.65,16,1,27,0.53
2013-6-28,92.0,80.6,70.2,75.1,69.7,62.6,91,71,46,29.70,29.53,14,1,14,0.00
2013-6-29,87.5,75.6,64.7,67.7,63.3,59.8,88,67,49,29.58,29.49,27,2,27,0.00
2013-6-30,76.5,67.9,61.9,67.7,63.7,59.9,94,87,69,29.69,29.55,9,1,14,0.00
2013-7-1,73.8,67.9,65.6,66.9,65.1,63.2,95,91,76,29.77,29.66,12,1,12,0.13
2013-7-2,77.9,69.1,61.7,67.0,64.1,59.6,96,85,65,29.90,29.74,12,0,12,0.01
2013-7-3,84.3,69.6,60.3,68.3,63.4,58.6,96,82,56,29.98,29.89,6,0,6,0.00
2013-7-4,79.6,71.4,63.0,72.1,67.0,61.5,96,87,71,29.95,29.88,10,1,12,0.00
2013-7-5,84.7,73.6,68.1,71.9,68.4,66.0,94,84,63,29.96,29.88,11,0,11,0.00
2013-7-6,87.2,74.1,65.9,74.0,68.7,62.6,95,85,61,29.97,29.84,15,1,17,0.44
2013-7-7,93.3,77.3,64.1,75.3,70.1,62.6,96,80,51,29.97,29.90,9,0,9,0.00
2013-7-8,96.4,81.6,68.9,76.8,72.6,67.2,95,76,48,30.01,29.92,6,0,7,0.00
2013-7-9,96.8,85.1,73.9,78.7,75.0,71.1,92,73,53,29.97,29.84,12,0,12,0.00
2013-7-10,95.5,84.0,75.7,79.4,74.9,72.2,90,75,54,29.87,29.74,12,0,12,0.00
2013-7-11,86.3,77.9,66.0,75.7,69.5,61.4,96,77,53,29.87,29.78,15,1,16,0.00
2013-7-12,83.3,72.6,62.3,65.4,61.9,58.7,90,71,49,29.93,29.86,14,2,14,0.00
2013-7-13,84.0,72.7,59.1,66.5,62.8,57.4,95,73,49,29.92,29.86,12,1,12,0.00
2013-7-14,89.0,76.9,66.7,75.2,70.6,64.2,94,82,59,30.00,29.89,14,1,14,0.00
2013-7-15,89.5,80.4,72.6,76.8,73.5,70.5,94,80,64,30.09,29.99,14,0,14,0.00
2013-7-16,94.3,81.8,69.5,76.8,72.9,68.0,96,76,53,30.17,30.09,7,0,7,0.00
2013-7-17,95.8,84.3,72.4,78.3,74.8,70.9,96,75,52,30.17,30.04,9,0,9,0.00
2013-7-18,91.3,81.1,74.0,78.7,74.5,71.2,95,81,54,30.06,29.92,11,0,14,0.03
2013-7-19,95.3,81.8,69.1,76.7,73.0,67.6,96,77,53,29.94,29.79,10,0,10,0.00
2013-7-20,94.7,82.1,71.6,76.7,73.2,68.0,93,76,54,29.83,29.68,19,0,19,0.02
2013-7-21,91.9,76.7,71.0,77.6,72.1,68.7,96,87,61,29.82,29.71,22,0,22,1.36
2013-7-22,88.5,78.2,71.3,76.7,73.4,70.2,97,86,65,29.75,29.68,11,0,11,0.98
2013-7-23,92.2,80.2,68.3,76.4,72.6,66.0,94,79,56,29.79,29.64,16,1,18,0.37
2013-7-24,83.5,73.3,66.3,71.2,66.7,62.0,96,81,58,29.85,29.69,12,1,13,0.04
2013-7-25,82.5,71.1,60.6,65.0,62.0,58.5,94,75,51,29.95,29.84,12,1,12,0.00
2013-7-26,84.3,71.8,58.4,68.6,63.3,57.0,96,77,49,29.94,29.82,5,0,9,0.00
2013-7-27,84.8,73.4,64.3,71.2,66.5,58.1,95,80,63,29.87,29.75,12,1,14,0.03
2013-7-28,81.8,68.6,53.8,61.7,57.1,51.8,94,69,44,29.95,29.85,8,0,9,0.00
2013-7-29,79.5,69.7,58.5,67.3,62.2,56.9,95,79,54,30.04,29.94,1,0,1,0.00
2013-7-30,72.5,68.8,65.4,71.0,66.7,62.3,96,93,84,30.04,29.91,10,0,10,0.47
2013-7-31,86.6,76.6,69.4,76.9,72.3,68.2,97,87,69,29.91,29.80,12,0,12,0.00
2013-8-1,87.0,76.1,67.5,71.5,68.8,65.3,95,80,54,29.93,29.84,12,1,13,0.00
2013-8-2,90.0,75.7,61.6,71.6,66.9,60.2,96,76,49,29.91,29.82,7,0,7,0.00
2013-8-3,83.4,75.2,69.9,75.8,71.5,66.9,96,88,77,29.93,29.80,12,0,12,0.90
2013-8-4,83.0,74.4,67.7,72.2,66.0,62.1,95,77,54,30.01,29.91,11,1,11,0.01
2013-8-5,77.7,70.6,66.8,67.7,65.3,62.8,92,84,66,29.97,29.80,0,0,0,0.02
2013-8-6,84.2,76.0,70.0,76.3,72.4,67.6,95,89,72,29.84,29.75,7,0,7,0.00
2013-8-7,86.8,76.2,70.7,77.7,73.3,67.6,96,91,73,29.83,29.74,13,0,13,0.29
2013-8-8,86.3,77.2,70.6,78.5,74.0,69.4,97,90,72,29.83,29.75,13,0,19,0.33
2013-8-9,90.8,78.7,72.0,78.5,74.1,70.8,97,86,64,29.90,29.78,13,0,13,0.14
2013-8-10,83.9,75.8,73.0,75.7,73.2,71.6,97,92,74,29.98,29.88,8,0,8,0.59
2013-8-11,86.8,78.6,71.4,77.2,73.8,70.2,97,86,69,29.99,29.91,6,0,6,0.00
2013-8-12,88.7,76.7,71.6,77.8,73.6,70.4,97,91,69,29.93,29.78,10,0,10,1.00
2013-8-13,85.0,75.8,67.8,72.8,69.7,63.1,97,82,56,29.91,29.78,14,1,14,0.00
2013-8-14,75.5,66.3,57.8,63.0,56.2,53.0,89,71,51,30.01,29.91,15,2,15,0.00
2013-8-15,77.9,65.2,53.6,61.3,57.0,51.9,95,77,53,29.99,29.90,14,1,14,0.00
2013-8-16,77.2,68.5,59.4,68.1,62.6,57.2,94,82,68,29.97,29.90,10,0,10,0.00
2013-8-17,79.2,69.2,64.3,71.3,65.9,62.6,96,90,72,30.02,29.91,11,1,11,1.05
2013-8-18,79.8,70.8,64.7,71.6,67.2,63.2,97,89,72,30.02,29.93,7,0,7,0.03
2013-8-19,84.3,72.7,63.4,73.3,67.9,62.2,97,86,64,30.00,29.90,7,0,7,0.00
2013-8-20,91.8,76.4,65.5,75.2,70.6,64.3,97,84,56,29.97,29.90,10,0,10,0.01
2013-8-21,92.6,78.7,67.6,76.4,71.8,66.4,97,81,55,30.01,29.92,9,0,9,0.00
2013-8-22,93.1,80.5,69.3,76.6,72.8,67.8,97,79,52,30.00,29.88,7,0,7,0.00
2013-8-23,92.5,77.9,70.1,77.0,72.7,68.7,96,85,58,29.94,29.88,13,0,13,0.05
2013-8-24,88.7,77.6,68.7,73.9,70.7,67.5,97,81,58,30.05,29.94,12,1,12,0.00
2013-8-25,90.2,77.6,67.3,77.4,71.6,65.3,94,83,64,30.14,30.05,11,0,11,0.00
2013-8-26,92.3,79.5,69.9,76.7,72.2,67.0,93,79,59,30.13,29.99,10,0,10,0.00
2013-8-27,91.7,79.4,70.8,76.6,71.6,66.1,91,78,61,30.00,29.89,12,0,12,0.00
2013-8-28,93.9,81.1,71.3,75.3,71.7,68.2,91,75,50,29.93,29.86,13,0,13,0.00
2013-8-29,95.5,82.7,72.3,78.4,73.9,69.3,91,76,52,29.90,29.81,10,0,10,0.00
2013-8-30,97.7,83.9,72.5,78.1,74.5,71.0,95,76,46,29.85,29.73,10,0,10,0.00
2013-8-31,97.4,84.9,76.7,79.9,75.7,72.6,89,75,55,29.76,29.64,8,0,8,0.00
2013-9-1,85.3,76.2,68.8,75.2,71.6,67.1,96,86,70,29.76,29.63,21,1,21,1.30
2013-9-2,91.0,76.9,68.4,77.9,72.0,66.2,95,85,62,29.78,29.70,17,0,17,0.12
2013-9-3,85.0,72.8,64.4,69.2,65.5,62.6,95,80,52,29.92,29.78,9,0,9,0.01
2013-9-4,83.5,70.5,59.9,66.5,63.2,58.7,96,80,53,30.02,29.92,11,0,11,0.01
2013-9-5,83.8,70.4,58.5,70.0,64.1,57.4,97,82,59,30.06,29.99,9,0,9,0.01
2013-9-6,88.6,74.7,63.7,72.7,67.8,62.5,97,81,55,30.04,29.92,10,0,10,0.00
2013-9-7,91.5,75.8,63.0,74.7,68.7,61.8,97,81,54,29.95,29.83,10,0,12,0.01
2013-9-8,90.3,78.6,66.4,76.6,71.9,64.9,96,81,58,29.86,29.77,7,0,7,0.00
2013-9-9,95.2,82.5,74.6,77.5,74.6,69.9,94,79,52,29.88,29.80,8,0,8,0.00
2013-9-10,94.0,81.2,73.7,79.7,74.0,71.3,94,80,55,30.00,29.88,12,0,12,0.00
2013-9-11,96.3,78.4,69.6,78.3,72.1,68.2,96,83,52,30.03,29.92,16,0,16,0.00
2013-9-12,90.0,78.0,68.4,76.2,72.1,65.6,96,83,63,29.92,29.78,11,0,11,0.01
2013-9-13,76.0,66.5,55.7,66.0,57.2,52.5,92,73,52,29.93,29.85,15,1,15,0.00
2013-9-14,73.3,60.2,49.2,56.0,51.6,47.5,95,76,49,30.02,29.93,13,1,13,0.00
2013-9-15,77.4,59.9,50.1,61.4,55.4,48.5,95,86,54,29.96,29.92,3,0,3,0.01
2013-9-16,75.4,67.7,60.2,66.7,62.7,58.0,94,84,72,30.06,29.93,5,0,10,0.00
2013-9-17,82.7,70.4,62.3,68.4,64.4,60.6,95,83,57,30.07,29.95,8,0,8,0.00
2013-9-18,87.3,74.3,65.6,74.2,69.3,63.8,95,85,63,30.00,29.89,11,0,11,0.00
2013-9-19,88.5,77.0,69.4,75.8,71.0,67.3,95,83,65,29.96,29.83,17,0,17,0.00
2013-9-20,82.8,73.0,67.4,73.2,68.6,66.0,96,86,71,29.84,29.68,15,0,15,1.92
2013-9-21,73.7,64.4,53.8,66.7,56.5,51.7,97,77,49,29.78,29.67,17,2,17,0.09
2013-9-22,53.8,53.7,53.6,52.1,52.0,51.7,94,94,93,29.77,29.77,0,0,0,0.00
2013-9-23,76.8,66.1,49.6,61.4,58.0,48.2,96,77,54,29.89,29.80,11,1,11,0.01
2013-9-24,81.1,67.0,55.7,69.8,62.8,54.3,96,87,65,29.83,29.68,13,0,26,0.30
2013-9-25,79.8,68.8,60.9,69.6,64.8,59.7,97,88,65,29.74,29.66,10,0,10,0.00
2013-9-26,81.7,69.2,60.2,69.2,64.0,59.1,97,85,60,29.89,29.73,9,0,9,0.01
2013-9-27,82.3,66.9,55.4,65.1,60.1,54.3,97,81,49,29.99,29.89,7,0,7,0.01
2013-9-28,82.3,69.6,60.4,64.6,61.0,58.1,95,76,50,30.01,29.90,14,1,14,0.00
2013-9-29,66.7,63.8,61.8,62.5,60.7,58.7,96,90,78,29.94,29.85,9,0,9,1.04
2013-9-30,70.7,66.2,63.4,65.2,63.8,62.2,97,92,81,29.88,29.82,13,0,13,0.02
2013-10-1,77.3,70.0,64.1,71.2,67.3,62.6,96,91,80,29.94,29.86,6,0,10,0.00
2013-10-2,82.1,72.2,66.8,72.9,68.9,65.6,97,90,72,29.97,29.89,14,0,14,0.12
2013-10-3,86.5,74.6,68.4,70.4,67.9,65.6,96,81,54,29.93,29.83,15,0,15,0.00
2013-10-4,86.0,74.6,66.9,76.9,70.0,65.0,95,86,68,29.93,29.84,11,0,11,0.07
2013-10-5,83.4,74.3,68.3,74.9,70.9,66.6,96,90,70,29.89,29.71,10,0,15,0.64
2013-10-6,69.2,60.4,48.4,66.7,54.4,45.5,96,82,56,29.84,29.68,16,1,16,1.30
2013-10-7,66.7,54.0,44.8,52.0,47.9,43.2,95,81,55,30.02,29.80,13,1,13,0.00
2013-10-8,69.4,55.9,45.5,53.1,48.5,44.2,96,79,48,30.08,29.98,16,1,16,0.01
2013-10-9,78.0,62.3,48.7,66.8,57.6,47.0,96,86,65,30.04,29.97,10,0,10,0.01
2013-10-10,80.3,66.5,58.6,67.6,62.2,57.5,97,87,58,30.03,29.89,5,0,5,0.00
2013-10-11,83.6,66.4,55.7,66.2,60.4,54.6,98,83,50,29.94,29.85,9,0,9,0.01
2013-10-12,75.5,65.9,56.5,67.6,62.2,55.2,97,88,73,30.01,29.87,7,0,7,0.01
2013-10-13,76.3,64.8,53.5,63.4,57.4,48.3,96,79,52,30.16,30.01,13,1,13,0.00
2013-10-14,74.0,61.2,49.0,63.0,55.5,46.5,92,82,67,30.15,29.96,8,0,8,0.00
2013-10-15,71.7,66.1,61.8,66.2,63.4,59.9,95,91,78,29.96,29.81,14,1,14,0.14
2013-10-16,66.2,58.5,49.7,64.6,55.1,48.0,96,89,72,29.89,29.80,11,0,11,0.12
2013-10-17,63.9,53.5,45.6,52.9,48.8,43.9,96,85,62,29.90,29.82,11,0,11,0.08
2013-10-18,70.3,54.4,41.1,53.8,47.8,39.8,96,81,49,29.95,29.82,11,0,11,0.01
2013-10-19,57.2,49.6,40.9,52.1,44.9,38.7,94,85,59,29.95,29.77,18,1,18,0.12
2013-10-20,65.8,49.9,38.6,47.2,42.6,36.5,94,78,49,29.98,29.88,13,0,13,0.01
2013-10-21,68.6,54.7,41.8,53.4,47.2,39.1,93,77,54,29.92,29.83,13,0,16,0.06
2013-10-22,62.2,50.9,38.3,49.7,41.7,36.5,95,73,44,29.95,29.73,14,0,14,0.01
2013-10-23,52.4,45.5,40.7,45.5,37.6,34.1,92,75,53,30.01,29.78,17,2,17,0.00
2013-10-24,50.9,43.3,31.8,41.1,35.8,28.6,90,76,49,30.28,30.00,18,1,18,0.00
2013-10-25,51.1,36.8,27.0,32.0,28.9,25.0,93,76,43,30.43,30.21,11,0,11,0.01
2013-10-26,59.4,45.2,29.6,47.0,37.1,27.3,92,75,54,30.20,29.94,11,0,11,0.00
2013-10-27,66.5,51.3,38.9,52.3,45.2,37.0,94,81,54,30.00,29.91,7,0,7,0.00
2013-10-28,71.0,58.4,50.9,56.8,53.1,49.2,94,84,60,30.12,29.93,6,0,6,0.00
2013-10-29,64.0,56.9,47.8,61.9,54.7,46.4,97,93,85,30.15,29.98,10,0,10,0.00
2013-10-30,77.8,68.8,62.7,66.6,63.0,60.3,95,82,67,30.02,29.84,17,1,17,0.01
2013-10-31,69.8,65.7,58.7,66.4,62.3,56.8,95,89,76,29.84,29.36,27,4,32,0.52
2013-11-1,69.3,57.0,48.5,56.9,49.6,44.0,95,78,49,29.73,29.53,18,2,18,0.01
2013-11-2,58.4,48.0,38.1,47.0,42.1,35.9,94,81,61,30.08,29.72,17,1,17,0.01
2013-11-3,59.0,43.9,32.0,44.4,36.5,30.5,96,78,46,30.21,30.07,7,0,9,0.01
2013-11-4,61.7,51.5,41.1,48.0,43.3,37.4,92,74,53,30.20,30.10,15,0,15,0.00
2013-11-5,67.0,58.4,50.2,51.5,46.9,42.8,83,66,53,30.22,30.02,17,1,17,0.00
2013-11-6,60.5,55.1,42.7,58.1,50.0,39.5,95,84,64,30.11,29.88,21,2,21,0.31
2013-11-7,52.8,42.0,33.6,39.5,33.8,30.1,91,75,44,30.27,30.11,13,1,13,0.01
2013-11-8,59.6,42.8,29.4,41.4,33.2,27.9,95,72,38,30.29,30.10,11,0,11,0.00
2013-11-9,64.3,50.6,39.3,43.5,38.6,33.2,81,65,45,30.13,30.02,17,2,17,0.00
2013-11-10,60.5,46.2,34.4,43.8,35.3,30.4,95,70,33,30.26,30.12,13,1,13,0.00
2013-11-11,66.5,50.2,31.2,44.3,36.2,29.1,94,63,30,30.20,30.03,22,1,22,0.00
2013-11-12,47.5,35.7,26.9,41.0,26.4,21.0,92,70,48,30.57,30.16,25,4,25,0.04
2013-11-13,45.8,32.3,20.8,26.7,22.2,17.8,90,68,41,30.61,30.31,9,0,9,0.00
2013-11-14,56.8,40.5,23.1,27.0,23.4,19.5,87,54,29,30.31,30.04,14,1,14,0.00
2013-11-15,52.6,47.2,37.9,50.0,38.9,24.3,92,74,50,30.05,29.92,9,0,12,0.01
2013-11-16,65.8,59.6,52.6,61.9,56.1,49.8,92,88,84,29.92,29.69,22,3,22,0.00
2013-11-17,74.1,66.7,57.4,68.6,58.3,34.5,95,78,36,29.83,29.44,24,6,24,0.83
2013-11-18,60.2,50.5,35.6,42.8,35.3,29.0,86,57,35,30.16,29.82,21,2,21,0.00
2013-11-19,47.4,40.4,33.2,31.4,29.8,28.6,87,66,49,30.22,30.09,12,1,12,0.00
2013-11-20,59.7,45.8,30.7,38.8,34.0,27.3,88,65,44,30.11,29.99,10,1,14,0.00
2013-11-21,65.5,55.1,46.8,56.2,48.2,37.6,94,78,62,30.11,30.02,15,1,15,0.16
2013-11-22,59.0,50.2,41.1,57.0,47.6,36.6,96,91,83,30.30,30.03,21,4,21,0.24
2013-11-23,44.6,36.0,23.4,36.8,25.1,13.7,88,66,33,30.53,30.28,22,5,22,0.00
2013-11-24,32.4,25.9,18.6,17.5,14.6,11.9,75,62,49,30.61,30.36,15,2,16,0.00
2013-11-25,39.7,33.2,28.8,31.7,23.8,16.5,92,70,49,30.36,30.07,9,0,9,0.01
2013-11-26,37.5,35.0,31.2,33.7,30.5,20.3,94,84,64,30.07,29.86,23,2,23,0.18
2013-11-27,31.0,24.0,16.5,20.2,12.4,10.7,81,62,45,30.27,30.00,22,3,22,0.00
2013-11-28,43.3,28.8,15.6,23.6,18.2,11.5,92,66,44,30.37,30.22,18,1,18,0.00
2013-11-29,52.7,35.1,20.9,32.9,26.3,18.2,91,72,45,30.48,30.32,9,0,9,0.00
2013-11-30,57.2,43.2,27.3,33.5,28.6,22.8,86,59,34,30.32,30.07,15,1,15,0.00
2013-12-1,55.3,48.6,43.7,40.8,36.6,30.9,83,64,51,30.07,29.80,9,0,9,0.00
2013-12-2,60.4,51.2,44.2,49.7,44.9,39.2,91,79,65,29.80,29.58,9,0,9,0.00
2013-12-3,63.7,54.6,46.5,54.8,50.5,44.8,96,87,65,29.65,29.57,11,0,11,0.00
2013-12-4,74.1,65.5,53.7,62.4,59.7,52.3,96,82,64,29.66,29.52,19,2,21,0.00
2013-12-5,68.8,43.4,30.2,63.5,39.3,27.4,92,86,76,30.09,29.65,18,4,18,0.17
2013-12-6,30.6,26.0,22.2,28.4,23.4,19.1,92,90,88,30.37,30.02,17,2,17,0.01
2013-12-7,25.1,20.4,15.6,19.7,16.1,10.8,88,83,78,30.53,30.27,17,4,17,0.00
2013-12-8,33.1,29.6,22.1,31.6,27.6,19.1,94,92,88,30.27,29.92,13,2,13,0.01
2013-12-9,31.3,28.7,25.0,29.8,24.6,16.7,94,85,70,30.19,30.01,16,2,16,0.00
2013-12-10,34.4,26.7,21.8,24.5,20.5,16.8,90,78,63,30.30,30.12,14,1,14,0.04
2013-12-11,38.9,27.8,18.8,29.9,22.2,14.0,93,80,63,30.51,30.27,19,2,19,0.15
2013-12-12,34.2,23.1,12.4,18.6,14.1,8.1,85,69,45,30.53,30.27,10,0,10,0.02
2013-12-13,41.8,31.4,17.7,33.1,23.5,14.5,90,74,53,30.27,29.85,11,0,12,0.28
2013-12-14,40.2,36.4,31.9,38.9,34.1,28.7,95,91,85,29.98,29.67,18,3,18,0.78
2013-12-15,31.9,30.7,29.3,28.7,26.5,24.8,90,84,80,30.13,29.98,16,3,16,0.00
2013-12-16,53.5,42.5,30.8,38.8,34.7,27.9,89,75,55,30.05,29.93,17,3,17,0.01
2013-12-17,46.2,37.6,26.7,37.9,31.4,22.9,90,79,61,30.19,29.97,12,1,12,0.00
2013-12-18,52.1,38.6,22.0,32.8,25.9,19.5,92,64,35,30.24,29.97,17,2,17,0.00
2013-12-19,60.7,52.5,43.0,50.0,43.1,32.6,79,71,57,30.01,29.81,21,4,21,0.00
2013-12-20,64.3,61.1,56.5,61.7,56.5,49.8,94,85,73,29.81,29.68,22,4,22,0.13
2013-12-21,71.6,63.3,45.7,64.6,60.6,43.9,97,91,77,29.68,29.34,43,4,43,2.62
2013-12-22,51.4,43.6,34.4,47.9,41.2,30.6,96,91,83,30.10,29.50,19,3,19,0.01
2013-12-23,34.4,31.2,26.5,31.7,25.1,19.9,92,78,69,30.39,30.10,12,2,17,0.00
2013-12-24,26.6,22.1,16.7,20.3,13.5,7.7,82,70,55,30.54,30.33,16,2,16,0.00
2013-12-25,42.9,31.1,17.4,28.4,22.0,13.7,87,70,52,30.33,30.18,14,1,14,0.00
2013-12-26,44.9,33.3,23.2,31.1,26.5,21.1,94,77,51,30.33,30.19,11,0,11,0.00
2013-12-27,52.9,36.3,22.5,36.2,28.7,20.3,92,75,52,30.35,30.23,10,0,10,0.00
2013-12-28,48.6,38.7,26.9,37.3,31.1,24.0,91,75,54,30.23,29.86,8,0,8,0.06
2013-12-29,50.5,39.1,27.6,41.7,35.0,21.6,95,85,70,30.10,29.81,19,3,19,0.19
2013-12-30,30.8,25.5,20.6,21.5,18.8,16.7,86,76,63,30.22,30.10,15,1,15,0.00
2013-12-31,43.4,31.3,21.2,27.7,22.8,16.9,89,71,50,30.34,30.18,9,1,9,0.00
2014-1-1,49.7,38.4,24.9,37.3,29.7,22.2,92,72,50,30.18,29.83,12,1,12,0.01
2014-1-2,41.1,26.9,16.8,40.2,21.5,10.7,97,80,69,30.35,29.77,25,5,25,0.01